MPEC 2011-L56 : 2011 KP36
The following Minor Planet Electronic Circular may be linked-to from your own Web pages, but must not otherwise be redistributed electronically.A form allowing access to any MPEC is at the bottom of this page.


M.P.E.C. 2011-L56 Issued 2011 June 14, 18:54 UT The Minor Planet Electronic Circulars contain information on unusual minor planets and routine data on comets. They are published on behalf of Commission 20 of the International Astronomical Union by the Minor Planet Center, Smithsonian Astrophysical Observatory, Cambridge, MA 02138, U.S.A. Prepared using the Tamkin Foundation Computer Network MPC@CFA.HARVARD.EDU URL https://www.minorplanetcenter.net/ ISSN 1523-6714 2011 KP36 Observations: K11K36P* C2011 05 21.32534 16 30 05.91 -01 54 40.9 20.4 VoEL056691 K11K36P C2011 05 21.34309 16 30 05.63 -01 54 39.9 20.4 VoEL056691 K11K36P C2011 05 21.36085 16 30 05.36 -01 54 39.0 20.2 VoEL056691 K11K36P C2011 05 25.27352 16 29 07.25 -01 51 01.6 21.2 VoEL056691 K11K36P C2011 05 25.29121 16 29 06.97 -01 51 01.1 20.5 VoEL056691 K11K36P C2011 05 25.30892 16 29 06.72 -01 51 00.4 20.8 VoEL056691 K11K36P C2011 06 05.27906 16 26 21.08 -01 43 10.0 19.8 VrEL056G96 K11K36P C2011 06 05.28597 16 26 20.94 -01 43 09.8 20.1 VrEL056G96 K11K36P C2011 06 05.29291 16 26 20.83 -01 43 09.6 19.9 VrEL056G96 K11K36P C2011 06 05.29990 16 26 20.76 -01 43 09.3 20.1 VrEL056G96 K11K36P C2011 06 09.28205 16 25 20.99 -01 41 12.8 20.4 VoEL056691 K11K36P C2011 06 09.29981 16 25 20.71 -01 41 12.0 20.1 VoEL056691 K11K36P C2011 06 09.31754 16 25 20.45 -01 41 11.8 20.1 VoEL056691 K11K36P MC2011 06 09.96407 16 25 10.86 -01 40 55.3 uEL056J95 K11K36P IC2011 06 09.98759 16 25 10.49 -01 40 55.5 uEL056J95 K11K36P HC2011 06 10.31734 16 25 05.60 -01 40 47.3 oEL056291 K11K36P HC2011 06 10.32168 16 25 05.53 -01 40 46.3 oEL056291 K11K36P HC2011 06 10.32631 16 25 05.46 -01 40 47.0 oEL056291 K11K36P |C2011 06 10.37428 16 25 04.77 -01 40 45.7 cEL056H06 K11K36P |C2011 06 10.38000 16 25 04.67 -01 40 45.0 19.6 RcEL056H06 K11K36P C2011 06 10.39769 16 25 04.39 -01 40 44.8 oEL056291 K11K36P C2011 06 10.40184 16 25 04.33 -01 40 44.9 20.9 VoEL056291 K11K36P HC2011 06 10.40848 16 25 04.22 -01 40 44.4 oEL056291 K11K36P |C2011 06 11.21344 16 24 52.33 -01 40 25.5 20.3 VoEL056807 K11K36P |C2011 06 11.22235 16 24 52.20 -01 40 25.3 20.1 VoEL056807 K11K36P |C2011 06 11.23084 16 24 52.08 -01 40 24.9 20.4 VoEL056807 K11K36P C2011 06 11.27076 16 24 51.50 -01 40 25.0 20.0 RoEL056H01 K11K36P C2011 06 11.27718 16 24 51.40 -01 40 24.8 19.8 RoEL056H01 K11K36P C2011 06 11.28660 16 24 51.26 -01 40 24.7 19.9 RoEL056H01 K11K36P C2011 06 11.29446 16 24 51.14 -01 40 24.5 20.3 RoEL056H01 K11K36P C2011 06 11.30268 16 24 51.02 -01 40 24.9 20.8 VoEL056291 K11K36P C2011 06 11.30967 16 24 50.92 -01 40 24.3 20.6 VoEL056291 K11K36P C2011 06 11.31370 16 24 50.84 -01 40 24.2 20.5 VoEL056291 K11K36P C2011 06 11.31900 16 24 50.76 -01 40 24.1 20.6 VoEL056291 K11K36P C2011 06 11.32282 16 24 50.72 -01 40 23.7 20.5 VoEL056291 K11K36P C2011 06 11.32748 16 24 50.63 -01 40 24.2 20.5 VoEL056291 K11K36P C2011 06 11.33154 16 24 50.58 -01 40 23.9 20.5 VoEL056291 K11K36P C2011 06 11.33667 16 24 50.50 -01 40 23.7 20.4 VoEL056291 K11K36P C2011 06 11.34089 16 24 50.44 -01 40 23.4 20.5 VoEL056291 K11K36P HC2011 06 12.19474 16 24 37.82 -01 40 04.5 oEL056291 K11K36P HC2011 06 12.19882 16 24 37.80 -01 40 06.0 oEL056291 K11K36P HC2011 06 12.20504 16 24 37.66 -01 40 05.4 oEL056291 K11K36P C2011 06 12.38350 16 24 35.05 -01 40 01.6 20.9 VoEL056291 K11K36P C2011 06 12.38874 16 24 34.99 -01 40 01.4 21.0 VoEL056291 K11K36P C2011 06 12.39268 16 24 34.91 -01 40 01.4 20.9 VoEL056291 K11K36P C2011 06 12.39767 16 24 34.85 -01 40 01.0 21.2 VoEL056291 K11K36P C2011 06 12.40215 16 24 34.76 -01 40 01.1 21.1 VoEL056291 K11K36P C2011 06 12.40582 16 24 34.72 -01 40 01.0 20.8 VoEL056291 K11K36P C2011 06 13.28375 16 24 21.88 -01 39 44.6 19.8 VrEL056G96 K11K36P C2011 06 13.29089 16 24 21.81 -01 39 44.4 20.3 VrEL056G96 K11K36P C2011 06 13.29764 16 24 21.67 -01 39 44.2 20.2 VrEL056G96 K11K36P C2011 06 13.30443 16 24 21.56 -01 39 44.8 19.3 VrEL056G96 Observer details: 291 LPL/Spacewatch II. Observer J. V. Scotti. 1.8-m f/2.7 reflector + CCD. 691 Steward Observatory, Kitt Peak. Observers T. H. Bressi, R. S. McMillan, J. V. Scotti. 0.9-m f/3 reflector + CCD. 807 Cerro Tololo. Observers R. Holmes, T. Linder, V. Hoette. Measurers R. Holmes, T. Linder. 0.41-m f/11 Ritchey-Chretien + CCD. G96 Mt. Lemmon Survey. Observers A. R. Gibbs, A. D. Grauer. Measurers J. D. Ahern, E. C. Beshore, A. Boattini, G. J. Garradd, A. R. Gibbs, A. D. Grauer, R. E. Hill, R. A. Kowalski, S. M. Larson, R. H. McNaught. 1.5-m reflector + CCD. H01 Magdalena Ridge Observatory, Socorro. Observers W. H. Ryan, E. V. Ryan. Measurer W. H. Ryan. 2.4-m f/8.9 reflector + CCD. H06 RAS Observatory, Mayhill. Observer H. Sato. 0.50-m f/4.5 reflector + CCD. J95 Great Shefford. Observer P. Birtwhistle. 0.40-m f/6.0 Schmidt-Cassegrain + CCD. Orbital elements: 2011 KP36 Epoch 2011 May 19.0 TT = JDT 2455700.5 MPC M 355.23239 (2000.0) P Q n 0.00266722 Peri. 180.22294 +0.99365172 +0.10597689 a 51.4948070 Node 173.33012 -0.10270718 +0.99148991 e 0.9071053 Incl. 18.96709 -0.04590741 +0.07560851 P 370 H 9.4 G 0.15 From 52 observations 2011 May 21-June 13. E-assumed. Ephemeris: 2011 KP36 a,e,i = 51.49, 0.91, 19 q = 4.7836 Date TT R. A. (2000) Decl. Delta r Elong. Phase V 2011 05 15 16 31 37.3 -02 01 20 11.5425 12.4773 156.7 1.8 20.4 ... 2011 05 30 16 27 56.1 -01 47 13 11.4452 12.4032 160.1 1.6 20.4 ... 2011 06 07 16 25 55.2 -01 42 16 11.4193 12.3636 157.6 1.8 20.4 ... 2011 06 13 16 24 26.0 -01 39 49 11.4116 12.3339 154.2 2.1 20.4 2011 06 14 16 24 11.4 -01 39 32 11.4113 12.3290 153.6 2.1 20.4 2011 06 15 16 23 56.9 -01 39 16 11.4112 12.3241 152.9 2.2 20.4 ... 2011 06 21 16 22 31.9 -01 38 20 11.4163 12.2943 148.5 2.5 20.4 ... 2011 06 29 16 20 45.9 -01 38 54 11.4372 12.2547 142.0 2.9 20.4 ... 2011 07 14 16 17 59.8 -01 45 24 11.5154 12.1803 129.0 3.7 20.5 A. U. Tomatic (C) Copyright 2011 MPC M.P.E.C. 2011-L56


Enter an MPEC number in one of the following forms:
- 1997-B01 (the full form)
- J97B01 (the packed version of the full form)
- B01 (the abbreviated form)